Batesville, Indiana, United States (47006)
Lat: 39.30N, Lon: 85.22W
Wx Zone: INZ073
Local Info
Past Weather Observations for Today

NOTE: This archive is for the closest National Weather Service station to Batesville. Information may differ from the station used for current weather conditions.

Click here for Long-term Archive

Time Weather Temperature Dewpoint Humidity Pressure Winds Precip Visibility
12:52
Overcast
77°F / 25°C 72°F / 22°C 83% 29.92 in
(1013 mb)
Calm - 10SM
12:27
Overcast
75°F / 24°C 72°F / 22°C 89% 29.92 in
(1013 mb)
Calm - 10SM
11:52
Overcast
75°F / 24°C 72°F / 22°C 89% 29.92 in
(1013 mb)
SW 4.6 mph
(SW 7 kph)
- 10SM
11:40
Overcast
73°F / 23°C 72°F / 22°C 94% 29.92 in
(1013 mb)
SSE 4.6 mph
(SSE 7 kph)
- 10SM
10:52
Overcast
73°F / 23°C 72°F / 22°C 94% 29.95 in
(1014 mb)
SSE 3.5 mph
(SSE 6 kph)
- 10SM
10:22
Overcast
73°F / 23°C 72°F / 22°C 94% 29.95 in
(1014 mb)
S 4.6 mph
(S 7 kph)
- 10SM
09:52
Overcast
73°F / 23°C 72°F / 22°C 94% 29.95 in
(1014 mb)
Calm 0.00 in
(0.00 mm)
10SM
08:52
Overcast
73°F / 23°C 72°F / 22°C 94% 29.95 in
(1014 mb)
WNW 6.9 mph
(WNW 11 kph)
0.00 in
(0.00 mm)
10SM
08:24
Overcast
73°F / 23°C 72°F / 22°C 94% 29.95 in
(1014 mb)
NW 8.1 mph
(NW 13 kph)
0.00 in
(0.00 mm)
8SM
08:22
Overcast
73°F / 23°C 72°F / 22°C 94% 29.92 in
(1013 mb)
NW 8.1 mph
(NW 13 kph)
0.00 in
(0.00 mm)
8SM
07:52
Overcast
72°F / 22°C 72°F / 22°C 100% 29.92 in
(1013 mb)
SSE 11.5 mph
(SSE 19 kph)
0.13 in
(3.30 mm)
8SM
07:23
Overcast
Rain
72°F / 22°C 72°F / 22°C 100% 29.92 in
(1013 mb)
S 6.9 mph
(S 11 kph)
0.13 in
(3.30 mm)
3SM
06:52
Overcast
Rain
72°F / 22°C 72°F / 22°C 100% 29.95 in
(1014 mb)
SW 3.5 mph
(SW 6 kph)
0.26 in
(6.60 mm)
2 1/2SM
06:33
Overcast
Heavy Rain
72°F / 22°C 72°F / 22°C 100% 29.95 in
(1014 mb)
SSW 3.5 mph
(SSW 6 kph)
0.04 in
(1.02 mm)
2 1/2SM
06:18
Overcast
Light Rain
73°F / 23°C 72°F / 22°C 94% 29.95 in
(1014 mb)
SSW 4.6 mph
(SSW 7 kph)
0.02 in
(0.51 mm)
6SM
06:03
Overcast
Light Rain
73°F / 23°C 73°F / 23°C 100% 29.95 in
(1014 mb)
Calm 0.01 in
(0.25 mm)
2 1/2SM
05:52
Overcast
Light Rain
73°F / 23°C 73°F / 23°C 100% 29.95 in
(1014 mb)
Calm 0.15 in
(3.81 mm)
4SM
05:43
Overcast
Rain
73°F / 23°C 72°F / 22°C 94% 29.95 in
(1014 mb)
Calm 0.13 in
(3.30 mm)
4SM
05:18
Overcast
Rain
73°F / 23°C 72°F / 22°C 94% 29.92 in
(1013 mb)
Calm 0.08 in
(2.03 mm)
3SM
05:03
Overcast
Thunder Storms
73°F / 23°C 73°F / 23°C 100% 29.92 in
(1013 mb)
S 4.6 mph
(S 7 kph)
0.04 in
(1.02 mm)
3SM
04:52
Overcast
Thunder Storms
73°F / 23°C 72°F / 22°C 94% 29.92 in
(1013 mb)
S 4.6 mph
(S 7 kph)
0.87 in
(22.10 mm)
3SM
04:42
Overcast
Thunder Storms
73°F / 23°C 72°F / 22°C 94% 29.95 in
(1014 mb)
SW 5.8 mph
(SW 9 kph)
0.85 in
(21.59 mm)
3SM
04:27
Overcast
Thunder Storms
73°F / 23°C 73°F / 23°C 100% 29.95 in
(1014 mb)
SSW 9.2 mph
(SSW 15 kph)
0.56 in
(14.22 mm)
2SM
04:14
Overcast
Thunder Storms
73°F / 23°C 73°F / 23°C 100% 29.92 in
(1013 mb)
SW 13.8 mph
(SW 22 kph)
0.07 in
(1.78 mm)
1SM
04:11
Overcast
Thunder Storms
73°F / 23°C 73°F / 23°C 100% 29.92 in
(1013 mb)
SSE 12.7 mph
(SSE 20 kph)
0.00 in
(0.00 mm)
2SM
04:03
Overcast
Thunder Storms
75°F / 24°C 73°F / 23°C 94% 29.92 in
(1013 mb)
Calm 0.00 in
(0.00 mm)
7SM
03:52
Overcast
Thunder Storms
75°F / 24°C 73°F / 23°C 94% 29.92 in
(1013 mb)
Calm 0.00 in
(0.00 mm)
6SM
03:50
Overcast
Thunder Storms
75°F / 24°C 73°F / 23°C 94% 29.92 in
(1013 mb)
Calm 0.00 in
(0.00 mm)
6SM
02:52
Overcast
Light Rain
75°F / 24°C 73°F / 23°C 94% 29.92 in
(1013 mb)
ENE 4.6 mph
(ENE 7 kph)
0.05 in
(1.27 mm)
7SM
02:18
Overcast
Light Rain
75°F / 24°C 75°F / 24°C 100% 29.92 in
(1013 mb)
SE 5.8 mph
(SE 9 kph)
0.05 in
(1.27 mm)
4SM
02:08
Overcast
Heavy Rain
75°F / 24°C 75°F / 24°C 100% 29.95 in
(1014 mb)
S 5.8 mph
(S 9 kph)
0.01 in
(0.25 mm)
2 1/2SM
01:52
Overcast
77°F / 25°C 75°F / 24°C 94% 29.95 in
(1014 mb)
Calm - 8SM
00:52
Overcast
Fog And Mist
75°F / 24°C 75°F / 24°C 100% 29.95 in
(1014 mb)
Calm - 5SM
Time Weather Temperature Dewpoint Humidity Pressure Winds Precip Visibility


Weather for websites

WeatherForYou.com, LLC is not responsible for any damages or problems caused by this service. Current weather conditions are obtained from the closest station including government and personal stations which may have varying degrees of accuracy. Weather forecasts are derived from the NOAA NDFD. Like all things, this site belongs to Jesus Christ... He just trusts us to maintain it. If you have any questions or comments email webmaster@weatherforyou.com

Copyright © 2016, WeatherForYou.com LLC. All rights reserved.